SCP
0 0 0 0 0 0 0 0 0 0 0 0 0 0 0 0 0 0 0 0 0 0 0 0 0 0 0 0 0 0 0 0 0 0 0 0 0 0
0 0 0 0 0 0 0 0 0 0 0 0 0 0 0 0 0 0 0 0 0 0 0 0 0 0 0 0 0 0 0 0 0 0 0 0 0 0
0 0 0 0 0 0 0 0 0 0 0 0 0 0 0 0 0 0 0 0 0 0 0 0 0 0 0 0 0 0 0 0 0 0 0 0 0 0
0 0 0 0 0 0 0 0 0 0 0 0 0 0 0 0 0 0 0 0 0 0 0 0 0 0 0 0 0 0 0 0 0 0 0 0 0 0
-0 0 0 0 0 0 0 0 0 0 0 0 0 0 0 0 0 0 0 0 0 0 0 0 0 0 0 0 0 0 0 0 0 0 0 0 0 0
-0 0 0 0 0 0 0 0 0 0 0 0 0 0 0 0 0 0 0 0 0 0 0 0 0 0 0 0 0 0 0 0 0 0 0 0 0 0
0 0 0 0 0 0 0 0 0 0 0 0 0 0 0 0 0 0 0 0 0 0 0 0 0 0 0 0 0 0 0 0 0 0 0 0 0 0
0 0 0 0 0 0 0 0 0 0 0 0 0 0 0 0 0 0 0 0 0 0 0 0 0 0 0 0 0 0 0 0 0 0 0 0 0 0
0 0 0 0 0 0 0 0 0 0 0 0 0 0 0 0 0 0 0 0 0 0 0 0 0 0 0 0 0 0 0 0 0 0 0 0 0 0
0 0 0 0 0 0 0 0 0 0 0 0 0 0 0 0 0 0 0 0 0 0 0 0 0 0 0 0 0 0 0 0 0 0 0 0 0 0
0 0 0 0 0 0 0 0 0 0 0 0 0 0 0 0 0 0 0 0 0 0 0 0 0 0 0 0 0 0 0 0 0 0 0 0 0 0
0 0 0 0 0 0 0 0 0 0 0 0 0 0 0 0 0 0 0 0 0 0 0 0 0 0 0 0 0 0 0 0 0 0 0 0 0 0
0 0 0 0 0 0 0 0 0 0 0 0 0 0 0 0 0 0 0 0 0 0 0 0 0 0 0 0 0 0 0 0 0 0 0 0 0 0
0 0 0 0 0 0 0 0 0 0 0 0 0 0 0 0 0 0 0 0 0 0 0 0 0 0 0 0 0 0 0 0 0 0 0 0 0 0
0 0 0 0 0 0 0 0 0 0 0 0 0 0 0 0 0 0 0 0 0 0 0 0 0 0 0 0 0 0 0 0 0 0 0 0 0 0
0 0 0 0 0 0 0 0 0 0 0 0 0 0 0 0 0 0 0 0 0 0 0 0 0 0 0 0 0 0 0 -0 0 0 0 0 0 0
0 0 0 0 0 0 0 0 0 0 0 0 0 0 0 0 0 0 0 0 0 0 0 0 0 0 0 0 0 0 0 -0 -0 0 0 0 0 0
0 0 0 0 0 0 0 0 0 0 0 0 0 0 0 0 0 0 0 0 0 0 0 0 0 0 0 0 0 0 0 -0 -0 -0 0 0 0 0
0 0 0 0 0 0 0 0 0 0 0 0 0 0 0 0 0 0 0 0 0 0 0 0 0 0 0 0 0 0 0 0 0 -0 0 0 0 0
0 0 0 0 0 0 0 0 0 0 0 0 0 0 0 0 0 0 0 0 0 0 0 0 0 0 0 0 0 0 0 0 0 0 0 0 0 0
0 0 0 0 0 0 0 0 0 0 0 0 0 0 0 0 0 0 0 0 0 0 0 0 0 0 0 0 0 0 0 0 0 0 0 0 0 0
0 0 0 0 0 0 0 0 0 0 0 0 0 0 0 0 0 0 0 0 0 0 0 0 0 0 0 0 0 0 0 0 0 0 0 0 0 0
0 0 0 0 0 0 0 0 0 0 0 0 0 0 0 0 0 0 0 0 0 0 0 0 0 0 0 0 0 0 0 0 0 0 0 0 0 0
Wind_Speed
3 3 3 2 2 2 2 2 3 1 2 3 3 3 3 2 5 4 4 8 9 9 9 9 9 9 10 10 9 8 7 7 6 6 6 6 6 5
2 4 3 2 2 2 2 2 2 3 0 2 2 2 3 4 6 4 4 9 9 10 10 9 10 9 9 9 10 9 8 7 7 6 6 6 6 6
3 3 3 2 2 2 2 2 2 2 1 2 2 2 3 3 4 4 3 3 4 9 9 9 9 9 10 10 10 9 8 8 8 8 7 7 7 6
2 3 2 2 3 2 2 2 1 1 2 1 2 2 3 3 3 3 4 4 4 7 9 9 9 9 10 10 10 10 9 9 8 8 8 9 8 8
2 2 1 2 2 2 2 1 1 1 1 1 2 2 2 2 3 4 4 3 5 6 8 8 9 10 10 10 10 10 10 9 9 8 8 8 9 9
2 2 1 1 1 0 1 1 1 1 1 1 1 2 2 3 2 3 4 3 4 5 6 6 9 10 11 11 11 11 10 10 9 9 8 7 8 8
1 1 0 0 0 1 0 0 1 1 1 1 1 2 2 3 3 2 3 4 4 3 3 4 4 4 6 9 11 11 11 11 10 9 8 8 8 8
0 1 1 1 2 3 2 1 0 1 1 1 1 2 3 3 2 2 2 3 4 3 2 4 3 4 5 4 8 11 11 11 10 9 9 9 8 9
1 1 1 1 2 1 3 3 3 3 2 2 2 3 3 3 2 2 2 3 4 4 3 5 3 4 5 6 11 11 12 12 11 10 10 10 9 9
2 2 2 1 1 1 1 2 2 3 3 2 3 4 4 4 3 3 4 4 4 3 2 3 4 4 6 5 9 10 11 11 12 11 11 10 9 9
1 2 2 2 3 2 0 1 3 4 4 5 6 6 7 7 5 2 2 3 4 4 2 2 3 4 4 4 6 9 10 11 12 12 12 11 10 9
1 2 3 3 3 2 1 1 3 4 4 5 5 6 5 5 6 3 2 2 3 4 3 2 3 3 5 3 3 4 6 9 11 11 11 10 9 5
2 2 3 5 5 4 3 3 5 5 3 3 3 3 3 3 3 3 3 3 3 5 4 2 3 3 4 5 4 4 4 5 5 6 8 9 9 6
3 3 4 6 6 5 4 5 7 5 2 2 3 3 3 4 4 4 4 5 5 7 6 4 4 4 4 6 6 4 4 4 5 5 5 6 7 9
4 6 5 6 5 5 6 7 5 2 2 2 4 4 4 4 4 4 4 4 5 6 6 5 5 5 4 6 6 6 5 5 4 4 5 4 5 4
4 4 6 5 4 4 5 4 3 3 3 4 4 4 3 3 3 3 3 3 4 5 5 5 6 6 6 7 6 7 6 5 4 4 5 5 5 4
3 1 1 1 2 3 3 3 3 3 3 3 3 4 4 4 4 3 3 3 4 5 6 5 5 5 7 6 7 8 7 6 6 5 5 6 6 5
4 2 3 4 4 4 4 4 3 4 4 4 4 4 4 4 5 4 3 4 5 6 6 6 5 5 5 6 9 8 7 6 5 5 5 6 8 6
4 4 4 5 5 5 5 5 5 5 4 4 4 4 4 4 4 4 4 5 5 6 6 5 4 4 7 9 6 7 7 6 5 5 6 6 8 7
4 5 5 5 5 5 5 5 5 4 4 4 4 5 4 4 5 5 5 6 6 6 6 5 5 6 7 9 8 7 8 8 6 7 6 6 7 9
5 5 6 5 5 6 6 5 5 5 5 5 5 5 5 5 5 6 6 8 8 6 8 7 7 9 6 5 7 7 6 9 10 8 7 6 7 7
5 6 5 5 5 5 5 5 5 5 5 5 5 5 5 5 6 7 6 6 7 7 8 7 6 5 4 6 9 9 9 7 8 13 14 12 7 7
5 5 5 5 5 5 5 5 6 6 6 5 5 5 5 5 6 6 7 7 7 7 8 7 6 5 6 7 8 9 10 9 6 6 7 11 15 17
Wind_Direction
71 67 62 35 41 57 85 116 124 78 343 318 330 336 343 350 357 5 357 360 5 5 8 10 9 8 6 1 357 351 346 345 346 338 326 313 306 299
68 67 53 33 37 41 59 73 105 133 172 289 293 308 336 357 3 3 352 0 0 0 2 4 3 2 1 357 352 345 340 335 330 329 326 316 306 298
65 74 57 49 46 35 47 60 67 104 125 301 305 324 353 352 348 352 352 354 349 352 351 352 353 352 349 348 346 341 335 328 323 320 318 315 307 299
80 78 56 57 47 33 41 43 44 85 131 314 322 335 338 332 336 343 347 348 335 338 344 348 346 342 341 340 337 333 330 326 321 313 311 309 306 302
112 106 89 76 49 29 41 39 18 32 81 120 314 319 319 335 344 337 337 333 330 332 337 339 337 334 332 332 329 323 320 318 316 310 305 304 305 301
111 121 134 133 148 133 60 42 49 42 37 42 336 326 319 320 350 337 332 329 324 328 330 329 329 330 326 324 322 319 314 310 307 305 300 296 296 298
70 78 118 146 150 147 114 169 108 76 36 20 339 338 328 333 327 313 318 314 309 312 321 317 321 318 315 315 315 312 311 310 307 306 301 296 294 294
148 312 328 8 2 3 357 353 141 141 196 192 274 283 283 281 292 304 311 332 315 307 321 304 311 305 301 296 304 307 310 312 308 304 299 295 292 293
180 210 318 351 7 0 345 351 343 333 292 214 231 254 263 264 273 290 285 281 276 284 305 296 304 300 297 306 313 315 316 314 308 302 296 294 293 289
202 199 201 264 290 288 324 341 317 307 297 275 236 251 258 251 230 247 261 282 282 284 283 285 296 293 300 301 311 320 322 320 315 308 302 295 292 285
243 215 201 221 267 284 334 308 313 309 303 300 293 295 298 298 295 303 313 317 305 295 288 267 288 297 291 288 302 319 320 316 312 307 305 300 296 290
262 263 246 239 255 261 220 235 281 286 300 313 315 315 307 303 302 269 239 266 286 290 277 269 286 311 305 284 289 305 308 305 304 299 297 298 301 298
232 250 255 262 265 270 257 230 257 279 279 283 291 299 302 297 290 271 240 227 249 263 265 251 269 275 267 289 293 283 286 292 297 295 291 291 291 288
227 237 245 258 265 273 271 278 288 300 292 292 292 290 289 286 280 273 262 249 241 250 261 248 251 257 271 283 287 288 284 281 278 281 284 284 283 283
229 233 241 253 263 273 279 287 292 279 266 269 271 270 262 264 276 284 284 276 273 267 266 250 245 253 250 264 277 280 288 281 265 271 280 274 270 274
237 249 256 266 259 264 280 283 263 246 243 247 259 263 269 273 273 271 276 283 287 288 276 261 251 247 258 261 264 274 270 271 274 270 275 275 266 257
204 216 242 258 264 270 271 269 263 264 260 253 256 268 274 275 274 270 262 265 267 281 292 288 267 251 245 251 265 266 268 267 263 266 274 280 269 257
191 214 232 237 244 252 258 264 257 251 250 251 253 257 265 269 274 275 266 263 270 274 277 283 292 298 290 265 233 254 263 263 266 262 258 272 277 265
211 229 235 238 242 245 246 249 254 252 245 242 247 253 259 265 269 274 275 275 275 274 273 273 271 272 286 291 272 229 249 266 267 264 256 254 268 271
222 233 240 242 241 243 246 248 252 253 245 244 246 250 251 257 265 269 270 271 276 279 279 272 260 255 259 275 282 275 250 252 260 265 266 263 265 268
233 238 240 241 243 244 246 246 246 246 244 242 245 247 247 249 258 262 266 271 273 275 275 273 266 265 268 272 276 275 266 250 247 255 262 270 277 275
241 243 245 246 246 247 248 247 248 247 245 245 246 248 247 246 254 260 264 269 270 271 274 277 278 274 261 262 272 278 282 273 261 261 259 253 257 262
244 247 248 249 250 249 246 247 248 249 246 244 244 247 248 250 253 257 262 266 270 274 279 283 282 269 262 261 269 275 275 276 274 271 267 262 257 260